AFL506 VVCR-USTR

Flight info

Callsign AFL506
Flight time N/A
Altitude 35000
Route KARAN1C KARAN W2 VIN/K0906F360 A206 NALAO/N0489F360 A206 LPB/N0492F350 B218 SAGAG/K0902S1100 A581 BIDRU L888 NIVUX/K0893S1130 L888 SANLI/K0882S1160 L888 XKC A460 RULAD/K0880F380 N126 TDK Z160 UDEKA/K0876F400 Z160 BLH W333 GIREM N170 LUKUS W333 NEMKU N170 KRG Z588 KTU N170 BEBLU N167 MALIB DCT KEGIR KEGIR1N
Aircraft A333/H-SDE3GHIJ2J3J5M1RVWXY/LB2D1

Departure

Time 2026-04-21 17:58
Airport Cam Ranh International Airport / Cam Ranh Air Base (VVCR)

Arrival

Time N/A
Airport Roshchino International Airport (USTR)
Time Latitude Longitude Altitude Speed Heading
2026-04-21 17:58 11.98775 109.22560 6124 ft 274 kts 334°
2026-04-21 17:58 11.99969 109.22100 6542 ft 274 kts 348°
2026-04-21 17:58 12.02531 109.22017 7348 ft 277 kts 358°
2026-04-21 17:59 12.04467 109.21887 7946 ft 279 kts 356°
2026-04-21 17:59 12.06368 109.21719 8517 ft 282 kts 356°
2026-04-21 17:59 12.08295 109.21532 9096 ft 283 kts 356°
2026-04-21 17:59 12.10195 109.21345 9633 ft 285 kts 356°
2026-04-21 18:00 12.11492 109.21217 9938 ft 289 kts 356°
2026-04-21 18:00 12.14143 109.20956 10326 ft 305 kts 356°
2026-04-21 18:00 12.16282 109.20744 10467 ft 322 kts 356°
2026-04-21 18:00 12.18492 109.20524 10621 ft 337 kts 356°
2026-04-21 18:01 12.20848 109.20290 10767 ft 351 kts 356°
2026-04-21 18:01 12.23360 109.20038 10922 ft 364 kts 355°
2026-04-21 18:01 12.25927 109.19768 11257 ft 370 kts 355°
2026-04-21 18:01 12.28492 109.19498 11731 ft 371 kts 355°
2026-04-21 18:02 12.30228 109.19315 11996 ft 374 kts 355°
2026-04-21 18:02 12.33749 109.18945 12492 ft 379 kts 355°
2026-04-21 18:02 12.36379 109.18669 12872 ft 382 kts 355°
2026-04-21 18:02 12.39062 109.18387 13236 ft 385 kts 355°
2026-04-21 18:03 12.41761 109.18103 13615 ft 388 kts 355°
2026-04-21 18:03 12.44482 109.17816 13988 ft 390 kts 355°
2026-04-21 18:03 12.47192 109.17531 14390 ft 391 kts 355°
2026-04-21 18:03 12.49934 109.17244 14736 ft 393 kts 355°
2026-04-21 18:04 12.52679 109.16955 15088 ft 396 kts 355°
2026-04-21 18:04 12.55456 109.16663 15458 ft 398 kts 355°
2026-04-21 18:04 12.58215 109.16373 15818 ft 399 kts 355°
2026-04-21 18:04 12.61008 109.16078 16137 ft 401 kts 355°
2026-04-21 18:05 12.63817 109.15782 16487 ft 403 kts 355°
2026-04-21 18:05 12.66641 109.15515 16832 ft 404 kts 356°
2026-04-21 18:05 12.69488 109.15270 17138 ft 407 kts 356°
2026-04-21 18:05 12.72318 109.15028 17459 ft 408 kts 356°
2026-04-21 18:06 12.74221 109.14863 17680 ft 409 kts 356°
2026-04-21 18:06 12.78026 109.14534 18128 ft 410 kts 356°
2026-04-21 18:06 12.78982 109.14452 18215 ft 411 kts 356°
2026-04-21 18:06 12.81881 109.14201 18493 ft 414 kts 356°
2026-04-21 18:07 12.86737 109.13780 19024 ft 415 kts 356°
2026-04-21 18:07 12.89630 109.13531 19304 ft 417 kts 356°
2026-04-21 18:07 12.91574 109.13361 19490 ft 418 kts 356°
2026-04-21 18:07 12.95511 109.13022 19840 ft 421 kts 356°
2026-04-21 18:08 12.97481 109.12851 20016 ft 422 kts 356°
2026-04-21 18:08 13.00408 109.12597 20313 ft 423 kts 356°
2026-04-21 18:08 13.01421 109.12509 20409 ft 423 kts 356°